GFSCGP_con_mlcape_057.txt.gz
CAPE
0 0 0 0 0 0 0 0 0 0 0 0 0 0 0 0 0 0 0 0 0 0 0 0 0 0 0 0 0 0 0 0 0 0 12 149 207 297 420 526 598 662 644 633
0 0 0 0 0 0 0 0 0 0 0 0 0 0 0 0 0 0 0 0 0 0 0 0 0 0 0 0 0 0 0 0 0 0 68 211 272 268 466 603 681 713 718 677
0 0 0 0 0 0 0 0 0 0 0 0 0 0 0 0 0 0 0 0 0 0 0 0 0 0 0 0 0 0 0 0 0 0 16 103 228 294 425 608 744 791 729 696
0 0 0 0 0 0 0 0 0 0 0 0 0 0 0 0 0 0 0 0 0 0 0 0 0 0 0 0 0 0 0 0 0 0 21 76 225 330 644 696 840 861 849 839
0 0 0 0 0 0 0 0 0 0 0 0 0 0 0 0 0 0 0 0 0 0 0 0 0 0 0 0 0 0 0 0 29 50 176 305 414 482 642 739 941 1001 906 831
0 0 0 0 0 0 0 0 0 0 0 0 0 0 0 0 0 0 0 0 0 0 0 0 0 0 0 0 0 0 0 79 166 257 330 445 525 544 677 627 592 479 417 395
0 0 0 0 0 0 0 0 0 0 0 0 0 0 0 0 0 0 0 0 0 0 0 0 0 0 0 0 0 0 61 211 318 356 418 515 528 527 522 407 367 324 315 338
0 0 2 8 0 0 0 0 0 0 0 0 0 0 0 0 0 0 0 0 0 0 0 0 0 0 0 0 0 33 338 470 479 429 412 384 411 434 439 403 382 339 387 421
7 8 0 23 1 0 0 0 0 0 0 0 0 0 0 0 0 0 0 0 0 0 0 0 0 0 0 0 14 365 645 677 609 490 411 425 367 294 259 257 326 301 311 304
4 7 2 0 14 6 0 0 0 0 0 0 0 0 0 0 0 0 0 0 0 0 0 0 0 0 0 23 383 693 748 682 527 426 304 173 183 223 193 171 143 165 197 167
3 1 4 0 0 3 24 1 5 0 0 0 0 0 0 0 0 0 0 0 0 0 0 0 0 0 62 345 675 785 629 433 337 242 198 184 135 105 128 172 180 208 217 156
0 0 3 0 1 0 0 0 0 8 0 0 0 0 0 0 0 0 0 0 0 0 0 0 9 49 223 556 733 687 469 300 215 164 142 108 65 58 54 68 130 170 240 290
1 5 0 0 19 5 1 0 0 0 0 0 0 0 0 0 0 0 0 0 0 0 0 0 106 153 263 559 649 487 325 211 160 138 100 28 0 28 57 106 183 177 175 193
18 7 1 1 0 0 0 0 0 0 0 0 0 0 0 0 0 0 0 0 0 0 0 18 83 265 319 552 456 328 208 141 92 14 0 0 0 31 78 174 208 181 150 100
9 5 3 0 0 0 0 0 0 0 0 0 0 0 0 0 0 0 0 0 0 0 0 1 112 382 468 551 435 251 126 67 1 0 0 15 12 30 73 138 170 191 95 34
8 3 3 0 0 0 0 0 0 0 0 0 0 0 0 0 0 0 0 0 0 0 0 0 328 455 515 544 467 265 111 11 0 0 20 1 20 49 76 103 108 184 155 31
3 7 2 0 0 3 0 0 0 0 0 0 0 0 0 0 0 0 0 0 0 0 0 6 317 601 700 561 441 291 128 0 0 10 13 5 33 56 88 129 125 170 87 37
3 9 11 0 0 0 0 16 5 18 5 14 15 0 0 0 0 0 0 0 0 0 0 66 386 712 822 581 446 322 73 0 0 17 2 18 25 55 94 151 161 64 70 40
1 2 0 1 0 0 0 0 0 1 0 7 2 0 0 0 0 0 0 0 0 0 0 121 482 743 841 603 464 265 30 0 0 10 15 29 11 58 91 157 118 41 37 54
1 0 0 0 0 0 0 2 3 2 0 20 17 20 2 1 0 0 0 0 0 0 4 371 583 781 786 536 372 232 7 0 0 6 42 53 7 60 96 107 61 39 35 54
0 0 0 0 0 0 0 3 2 0 0 0 19 3 3 7 0 0 0 0 0 0 9 568 669 779 723 473 396 143 2 0 0 28 78 103 48 84 102 62 40 53 32 22
0 0 0 0 0 0 1 0 0 0 1 3 10 4 2 4 3 3 0 0 0 0 219 553 698 731 620 418 475 113 14 0 2 71 96 92 94 44 37 30 49 46 32 20
1 5 0 0 0 1 1 6 0 0 2 8 1 0 4 2 4 0 0 0 0 6 330 592 682 635 389 464 572 254 16 21 26 78 165 80 67 64 50 19 48 23 20 34
1 5 2 4 6 14 10 11 8 14 10 16 2 1 2 1 2 0 0 0 3 240 496 623 574 460 365 412 521 405 55 25 40 109 185 178 115 80 80 113 7 2 17 12
1 1 8 4 7 11 20 16 8 8 6 7 0 0 5 3 0 0 0 0 128 500 537 343 439 429 343 340 348 355 18 15 56 171 157 245 230 166 123 115 17 2 29 10
0 7 19 5 16 18 9 14 6 9 9 8 0 3 2 2 0 0 0 15 429 519 351 206 226 325 224 215 204 65 5 3 78 145 151 248 232 231 146 0 0 0 0 0

GFSCGP_con_mlcape_060.txt.gz
CAPE
0 0 0 0 0 0 0 0 0 0 0 0 0 0 0 0 0 0 0 0 0 0 0 0 0 0 0 0 0 0 0 16 0 25 297 508 680 812 943 1093 1231 1249 1232 1259
0 0 0 0 0 0 0 0 0 0 0 0 0 0 0 0 0 0 0 0 0 0 0 0 0 0 0 0 0 0 0 0 7 40 454 724 811 1041 1087 1151 1297 1370 1302 1393
0 0 0 0 0 0 0 0 0 0 0 0 0 0 0 0 0 0 0 0 0 0 0 0 0 0 0 0 0 0 0 0 34 122 726 1049 1102 959 1056 1174 1350 1416 1499 1436
0 0 6 4 0 0 0 0 0 0 0 0 0 0 0 0 0 0 0 0 0 0 0 0 0 0 0 0 0 0 0 0 142 412 520 773 742 841 982 1224 1432 1560 1464 1332
1 3 16 9 0 0 0 0 0 6 1 0 0 0 0 0 0 0 0 0 0 0 0 0 0 0 0 0 0 0 0 4 325 653 501 860 836 1206 1333 1346 1697 1570 1563 1524
15 20 7 0 0 1 9 13 10 16 9 13 0 0 0 0 0 0 0 0 0 0 0 0 0 0 0 0 0 0 0 148 914 961 856 1143 1236 1276 1399 1617 1765 1669 1718 1708
18 71 12 9 0 0 5 30 16 21 17 10 0 0 0 0 0 0 0 0 0 0 0 0 0 0 0 0 0 0 183 792 1180 1212 1259 1424 1615 1646 1827 1838 1538 1372 1086 951
24 21 21 7 6 24 25 26 57 37 11 0 0 0 0 0 0 0 0 0 0 0 0 0 0 0 0 0 0 96 626 1134 1265 1285 1405 1608 1695 1559 1451 1147 1087 941 698 738
14 35 26 8 13 15 34 36 28 4 0 6 0 0 0 0 0 0 0 0 0 0 0 0 7 1 0 0 0 195 793 1249 1265 1339 1333 1352 1206 1157 1065 1158 1048 834 842 969
21 9 54 6 10 11 11 8 14 21 2 19 1 0 0 0 0 0 0 0 0 0 0 0 191 81 0 46 496 924 1324 1381 1358 1296 1287 1232 1191 1030 1090 1023 770 846 872 696
15 17 16 41 11 7 26 6 37 31 16 0 2 0 0 0 0 0 0 0 0 0 0 0 267 158 242 575 1038 1411 1458 1415 1340 1271 978 792 694 770 794 801 803 810 797 712
6 17 6 29 22 0 0 0 0 56 46 0 0 21 0 0 0 0 0 0 0 0 0 0 329 212 668 979 1334 1467 1339 1268 1148 851 686 672 666 653 644 592 578 577 416 445
20 10 21 45 23 5 14 0 8 44 0 25 1 2 0 0 0 0 0 0 0 0 0 0 189 287 726 1125 1277 1272 1175 975 711 563 591 540 414 361 262 277 305 352 411 358
16 14 10 27 9 12 5 22 28 24 32 10 17 13 7 0 0 0 0 0 0 0 0 0 8 396 591 1109 1229 1125 947 693 499 445 406 225 35 125 281 330 354 318 323 292
5 11 21 17 12 0 1 0 13 28 14 20 13 8 2 0 0 0 0 0 0 0 0 0 0 556 839 1057 1113 971 724 566 459 280 29 14 179 267 304 352 362 307 288 251
7 1 12 15 13 7 0 0 0 0 0 5 21 0 0 0 0 0 0 0 0 0 0 0 0 645 915 1010 996 802 605 446 245 11 2 48 104 181 237 286 274 309 217 168
3 12 10 10 16 1 0 14 13 5 0 15 27 10 0 0 0 0 0 0 0 0 0 0 0 545 943 1143 802 560 522 335 77 0 1 43 91 115 183 189 212 309 246 234
1 7 18 1 0 1 18 12 4 3 5 38 26 9 1 0 0 0 0 0 0 0 0 0 113 923 1031 1089 870 686 452 194 0 0 6 25 22 45 103 185 197 286 346 232
1 0 2 5 6 0 0 6 0 0 0 0 4 9 11 0 0 0 0 0 0 0 0 2 235 996 1086 989 909 621 364 1 0 1 5 1 3 63 131 193 257 307 332 279
0 1 0 7 0 2 6 3 5 0 0 3 5 11 19 37 20 0 4 0 0 0 0 22 598 965 1093 1012 843 555 174 0 0 9 12 2 2 129 156 265 302 341 381 335
9 1 0 0 1 9 1 4 3 0 0 1 4 2 14 13 21 4 0 0 0 0 1 171 838 950 1150 1004 864 470 31 0 1 18 11 5 16 34 120 208 320 316 231 188
5 3 4 0 2 1 0 0 0 0 3 4 1 14 0 8 16 8 1 0 0 0 77 588 974 1025 1232 1057 767 415 2 0 23 28 4 11 103 127 224 294 239 297 234 168
15 11 1 0 0 9 17 7 22 7 6 8 26 9 18 3 8 5 3 0 1 47 327 807 1005 1214 1190 1043 703 267 0 0 53 32 4 34 195 205 350 389 270 202 195 76
16 32 14 16 25 17 8 13 11 13 11 7 6 7 15 18 8 2 1 0 2 107 781 953 1109 1250 1207 967 731 235 0 6 75 54 10 117 263 352 410 416 302 74 158 33
22 12 12 19 3 5 20 6 20 4 0 10 10 10 2 1 3 8 2 0 0 60 928 1042 1215 1285 1215 978 862 41 0 29 101 86 27 139 336 392 523 456 133 76 84 33
19 15 14 20 14 9 12 15 17 3 1 12 2 0 0 4 5 1 0 0 0 679 1044 1162 1104 1216 1074 922 561 5 0 19 132 136 64 134 279 536 522 319 95 0 0 0

GFSCGP_con_mlcape_063.txt.gz
CAPE
0 0 0 0 0 0 0 0 0 0 0 0 0 0 0 0 0 0 0 0 0 9 6 7 15 0 0 0 0 4 5 225 304 253 189 171 606 999 1094 1038 1322 1496 1747 1630
0 0 0 0 0 0 0 0 0 0 0 0 0 0 0 0 0 0 0 0 0 0 10 1 0 0 0 0 0 10 132 214 827 425 322 374 742 950 1243 1243 1594 1697 1719 1663
0 0 0 0 0 0 0 0 0 0 0 0 0 0 0 0 0 0 0 0 0 0 0 0 0 0 0 0 0 0 82 179 396 534 471 1098 1435 1437 1488 1500 1751 1788 1714 1754
0 0 0 0 0 0 0 0 0 0 0 0 0 0 0 0 0 0 0 0 0 0 0 0 0 0 0 0 0 0 1 78 294 1046 271 1267 1204 1435 1349 1517 1676 1788 1713 1753
0 18 26 46 3 1 0 0 0 0 0 0 0 0 0 0 0 0 0 0 0 0 0 0 0 0 0 0 0 0 0 6 211 1053 409 1100 1413 1148 1349 1437 2017 1911 1860 1780
13 38 42 55 33 2 8 1 1 0 0 1 0 0 0 0 0 0 0 0 0 0 0 0 0 0 0 0 0 0 0 0 328 1053 1054 1444 1384 1631 1527 1818 2040 1901 1689 1728
8 25 29 9 56 82 10 24 17 24 22 0 0 1 0 0 0 0 0 0 0 0 0 0 0 0 0 0 0 0 0 0 518 1378 1452 1551 1703 2063 2253 2303 1955 1882 1809 1846
18 6 63 29 55 113 74 55 29 12 16 35 18 9 1 0 0 1 0 0 0 0 0 0 0 0 0 0 0 0 0 136 1223 1448 1625 1787 2195 1992 2171 2227 1992 1754 1595 1441
27 33 4 12 112 48 83 41 86 70 1 0 0 9 22 1 0 0 0 0 0 0 0 0 2 7 1 0 0 0 160 811 1453 1700 1932 2171 2263 2234 2041 1980 1763 1262 1062 1142
36 9 37 102 66 0 46 83 31 84 0 0 13 6 6 3 2 3 0 0 0 0 0 0 32 410 289 0 0 27 500 1249 1607 1868 2071 2164 1965 1697 1702 1641 1295 958 827 764
21 16 29 52 85 156 180 129 88 18 19 14 0 34 2 9 0 9 12 0 0 0 0 1 486 504 452 166 294 558 1129 1557 1754 1820 1836 1805 1633 1640 1464 1099 1054 923 788 588
27 48 13 22 14 54 13 89 143 92 5 69 4 0 0 9 20 0 8 0 0 0 0 0 580 503 727 802 1142 1525 1587 1637 1743 1790 1713 1419 1211 1048 1022 903 711 674 581 470
10 23 57 7 37 9 1 25 66 22 47 2 4 0 0 86 65 30 3 2 0 0 0 0 449 664 1221 1224 1450 1641 1647 1652 1611 1335 1152 1039 932 875 702 534 469 397 320 292
14 10 11 16 26 0 0 21 25 48 46 4 1 0 0 0 25 0 0 1 1 0 0 0 8 914 1330 1305 1444 1457 1549 1447 1207 1027 909 859 690 499 334 313 329 372 350 322
7 3 16 32 41 40 44 24 9 2 13 0 0 0 0 0 0 0 0 0 0 0 0 0 0 1047 1332 1387 1357 1322 1247 1071 946 755 658 415 200 223 316 341 329 248 255 187
14 2 11 9 15 39 21 41 29 14 0 0 0 0 0 0 0 0 0 0 0 0 0 0 0 1167 1154 1140 1282 1261 1068 932 741 513 175 144 196 233 308 344 271 225 185 166
3 6 9 2 23 9 5 29 83 124 58 23 0 0 0 1 1 0 0 0 0 0 0 0 0 309 1146 1181 1209 1084 935 797 428 157 76 48 130 144 185 214 235 168 178 139
0 1 5 0 7 0 0 19 0 1 8 67 73 13 33 15 4 17 2 0 0 0 0 0 3 221 1308 1226 951 995 827 513 184 91 19 47 44 85 109 124 229 180 523 433
1 1 1 7 3 0 1 1 0 1 0 0 7 2 58 49 36 30 14 0 0 0 0 1 65 494 1253 1169 886 1042 692 349 70 31 13 22 38 62 67 108 140 506 540 470
10 0 0 1 0 1 0 15 7 2 1 6 4 4 6 2 34 79 110 45 20 3 0 1 151 258 1444 1227 1168 1016 578 154 55 17 2 24 28 29 78 230 370 548 473 425
9 0 0 2 2 3 11 2 4 0 3 0 10 8 2 11 12 1 1 5 4 1 0 16 250 451 1602 1234 1181 917 385 54 47 3 5 1 12 74 203 322 502 458 440 295
6 6 10 0 0 2 11 4 0 1 7 10 31 13 28 20 0 0 0 0 0 6 5 211 426 858 1465 1162 1278 811 237 48 37 15 7 7 47 31 9 65 360 387 395 310
13 11 28 10 0 46 36 23 51 23 28 8 19 23 15 2 9 9 4 5 19 11 47 406 689 1470 1286 1157 1258 692 135 33 32 28 10 8 50 183 200 199 256 321 270 262
20 50 39 26 36 15 0 18 51 30 15 8 1 3 12 2 8 2 0 0 18 3 98 164 902 1525 1212 1221 1128 610 80 32 40 11 22 55 136 210 189 311 95 302 302 171
16 20 30 21 27 11 11 15 17 16 1 0 0 1 2 13 12 5 1 8 8 38 228 371 1059 1541 1266 1380 1007 467 3 51 89 13 37 67 243 385 263 16 1 275 166 72
59 29 31 20 26 15 26 18 17 12 1 0 6 6 3 4 5 4 10 1 0 0 292 644 1175 1248 1325 1187 869 240 0 102 117 48 45 94 222 370 407 322 65 0 0 0

GFSCGP_con_mlcape_069.txt.gz
CAPE
0 0 0 0 0 0 0 0 0 0 0 0 0 0 0 0 0 0 0 0 0 0 0 0 0 0 11 108 34 13 102 434 668 531 716 914 690 567 478 532 723 1151 1524 1661
0 0 0 0 0 0 0 0 0 0 0 0 0 0 0 0 0 0 0 0 0 0 0 0 0 0 0 86 88 15 0 89 130 64 170 171 134 207 149 283 931 1225 1538 1659
0 0 0 0 0 0 0 0 0 0 0 0 0 0 0 0 0 0 0 0 0 0 0 0 0 0 0 85 91 44 36 5 36 57 74 142 569 470 666 935 1093 1465 1657 1775
0 0 0 0 0 0 0 0 0 0 0 0 0 0 0 0 0 0 0 0 0 0 0 0 0 0 24 238 240 68 46 29 18 27 5 0 0 50 215 608 1520 1748 1795 1691
0 0 0 0 0 0 0 0 0 0 0 0 0 0 0 0 0 0 0 0 0 0 0 0 0 0 0 235 135 26 14 14 7 0 17 0 81 465 790 1189 1711 1783 1785 1799
0 0 0 0 0 0 0 0 0 0 0 0 0 0 0 0 0 0 0 0 0 0 0 0 0 0 0 2 137 0 0 0 0 0 28 3 0 138 987 1769 1812 1750 1678 1672
0 0 2 4 0 0 0 0 0 0 0 0 0 2 0 0 0 0 0 0 0 0 0 0 0 0 0 0 0 0 0 0 0 0 0 44 20 192 762 1641 1833 1834 1724 1566
0 0 0 5 13 4 0 0 4 0 0 0 0 0 0 0 0 0 0 0 0 0 0 0 0 0 0 0 0 0 0 0 0 0 0 92 507 554 1220 1944 1781 1799 1639 1473
0 0 0 0 1 2 0 0 0 6 0 0 0 0 0 0 34 20 0 0 0 0 0 1 0 0 0 0 0 0 0 0 0 0 234 286 586 882 1309 1896 1866 1729 1553 1335
0 0 0 0 0 0 31 0 8 12 0 0 0 0 0 10 4 0 0 0 0 0 0 16 47 27 215 422 358 322 58 3 0 145 706 1089 791 1309 1981 2084 1908 1700 1497 1327
0 0 0 0 0 0 19 6 0 3 0 11 0 0 79 3 0 0 0 0 0 0 0 0 8 359 570 375 288 388 167 50 200 804 1206 1451 1544 1704 2455 2108 2033 1753 1635 1490
0 0 0 0 0 0 0 15 7 0 0 0 0 0 25 0 0 0 0 0 0 0 0 77 1179 937 654 470 382 385 345 141 428 1149 1708 1806 1822 2392 2169 1826 1611 1744 1702 1571
0 0 0 0 0 0 0 0 0 0 0 0 0 0 13 18 0 0 0 0 0 0 0 0 57 973 732 726 674 705 1010 1366 1792 1922 1916 2119 2162 2057 1657 1037 812 980 918 749
4 0 0 0 0 1 0 0 0 8 11 2 0 1 0 2 0 0 0 0 0 0 0 0 0 440 1077 1076 916 1182 1713 1846 1846 1635 1669 1940 1642 1440 989 627 412 431 292 235
7 0 0 0 0 0 0 1 0 12 3 7 4 0 10 1 0 0 0 0 0 0 0 0 0 7 994 1275 1095 1226 1745 1615 1497 1605 1714 1663 1306 995 724 519 401 390 196 117
0 1 0 0 0 0 0 2 3 15 54 14 1 0 0 0 0 0 0 0 0 0 3 0 55 119 457 833 947 1336 1540 1386 1490 1480 1437 1195 930 719 564 401 372 265 136 103
1 2 0 0 0 0 0 0 5 0 0 0 0 0 0 0 0 9 25 0 60 51 62 1 10 68 370 85 709 899 1230 1163 1382 1263 1070 828 601 465 321 250 267 108 36 39
0 0 0 0 0 0 0 0 0 0 0 0 0 0 0 0 0 0 0 29 39 3 14 7 94 294 183 3 437 1072 1001 1103 1029 850 656 460 410 457 411 194 34 31 25 11
0 0 0 0 0 0 0 0 0 2 0 0 0 0 4 0 0 0 2 0 0 0 0 0 0 8 201 8 19 734 677 741 641 430 304 317 556 440 310 69 21 106 50 12
0 0 0 0 0 0 0 0 0 0 0 0 0 0 5 1 0 0 0 0 0 0 0 0 0 0 55 103 121 482 418 482 296 266 284 302 423 441 272 98 33 87 22 15
1 1 0 2 0 0 0 0 0 0 0 14 19 0 0 0 0 0 0 0 0 0 0 0 0 0 12 192 159 503 405 358 218 136 135 207 228 250 253 142 64 114 141 67
1 6 0 2 0 0 0 0 0 0 0 0 27 21 18 0 0 0 0 0 0 0 0 0 0 0 1 106 122 752 598 257 99 65 233 284 295 179 139 132 225 200 119 112
0 26 16 10 0 13 28 3 0 0 0 1 0 18 14 0 0 1 0 0 0 0 0 0 0 0 0 3 295 684 681 108 57 195 206 190 186 242 301 258 220 253 117 60
2 4 3 1 7 11 4 0 6 13 9 0 0 0 0 0 0 1 0 0 0 0 0 0 0 0 0 9 257 725 667 42 141 132 94 146 141 182 190 166 158 156 141 56
0 0 3 0 5 0 1 1 1 0 0 0 0 0 2 0 0 2 0 0 0 0 0 0 0 0 0 0 210 899 373 93 133 112 61 39 19 16 1 0 66 99 65 39
1 4 18 9 1 15 12 3 0 0 0 0 0 0 0 2 3 0 0 0 0 0 0 0 0 0 0 37 400 1040 194 92 129 73 41 48 1 2 4 2 0 0 0 1

GFSCGP_con_mlcape_072.txt.gz
CAPE
0 0 0 0 0 0 0 0 0 0 0 0 0 0 0 0 0 0 0 0 0 0 0 0 0 0 0 0 0 7 556 496 660 719 717 746 758 488 478 515 757 1076 1198 1074
0 0 0 0 0 0 0 0 0 0 0 0 0 0 0 0 0 0 0 0 0 0 0 0 0 0 0 0 0 0 638 858 867 827 1029 1108 683 665 749 860 763 628 959 1142
0 0 0 0 0 0 0 0 0 0 0 0 0 0 0 0 0 0 0 0 0 0 0 0 0 0 0 0 0 0 120 938 1108 1085 868 660 478 387 239 197 285 510 961 1311
0 0 0 0 0 0 0 0 0 0 0 0 0 0 0 0 0 0 0 0 0 0 0 0 0 0 0 0 0 1 39 330 597 589 395 187 91 76 38 18 162 549 1213 1435
0 0 0 0 0 0 0 0 0 0 0 0 0 0 0 0 0 0 0 0 0 0 0 0 0 0 0 0 0 19 61 52 207 118 96 34 27 0 0 20 216 568 1348 1576
0 0 0 0 0 0 0 0 0 0 0 0 0 0 0 0 0 0 0 0 0 0 0 0 0 0 0 0 0 0 197 145 89 49 21 0 0 0 3 334 395 764 1448 1658
0 0 0 0 0 0 0 0 0 0 0 0 0 0 0 0 0 0 0 0 0 0 0 0 0 0 0 0 0 12 10 145 36 6 11 0 0 0 2 336 363 1013 1591 1597
0 0 0 0 0 0 0 0 0 0 0 0 0 0 0 0 0 0 0 0 0 0 0 0 0 0 0 0 0 0 0 4 4 0 0 0 0 0 27 227 492 1305 1687 1576
0 0 0 0 0 0 0 0 0 0 0 0 0 0 0 0 0 0 0 0 0 0 0 0 0 0 0 0 0 0 0 0 0 0 0 0 0 16 59 177 676 1435 1589 1526
0 0 0 0 0 0 0 0 0 0 0 0 0 0 0 0 0 0 0 0 0 0 0 0 0 0 0 0 0 0 0 0 0 0 0 2 24 145 352 604 1032 1448 1509 1518
0 0 0 0 0 0 0 0 0 0 0 0 0 0 2 2 0 0 0 0 0 0 0 0 0 0 0 72 0 74 0 0 0 0 0 62 219 540 858 928 1263 1475 1473 1400
0 0 0 0 0 0 0 0 0 0 0 0 0 0 0 0 0 0 0 0 0 0 0 1 0 0 0 83 534 378 294 212 139 225 327 429 759 1126 1329 1306 1273 1468 1499 1203
0 0 0 0 0 0 0 0 0 5 4 0 2 0 0 0 0 0 0 0 0 0 0 1 0 0 0 1 619 467 463 342 464 597 709 1149 1178 1218 1285 1584 1676 1584 1407 1216
6 0 0 0 0 0 0 0 0 3 3 0 0 0 0 0 8 0 0 0 0 0 0 0 0 0 0 545 1219 1085 764 740 784 885 948 1073 1501 1467 1473 1689 1507 1426 1221 1107
0 0 0 0 0 0 0 0 0 0 0 1 0 0 0 0 0 0 0 4 0 0 0 0 0 0 399 104 400 1177 1301 1132 1014 1286 1587 1537 1524 1472 1494 1280 1128 1018 969 790
0 0 0 0 0 0 0 0 0 0 0 0 0 0 0 0 0 0 0 10 1 0 0 0 0 104 266 89 9 330 1167 1225 1526 1452 1469 1300 1137 936 761 611 503 242 183 212
2 0 0 0 0 0 0 0 1 0 0 0 0 0 0 0 0 0 0 0 0 0 7 0 0 0 2 143 1 63 451 1155 1142 1289 1086 1088 912 602 441 313 135 46 22 15
0 0 1 0 0 0 0 0 0 0 0 0 0 0 0 0 0 0 0 0 0 0 0 0 0 0 0 161 0 0 5 361 914 1026 919 845 664 469 287 202 63 3 7 0
0 0 0 1 0 0 0 0 0 0 0 0 0 0 0 0 0 0 0 0 0 0 0 0 0 0 0 168 31 0 0 187 693 915 771 611 473 312 118 73 21 5 0 0
0 2 0 0 0 0 0 0 0 0 0 0 0 0 0 0 0 0 0 0 0 0 0 0 0 0 0 62 27 10 0 355 540 633 546 444 287 156 58 16 0 0 0 0
0 0 0 0 0 0 0 0 0 0 0 0 0 0 0 0 0 0 0 0 0 0 0 0 0 0 0 30 71 0 0 294 410 385 332 258 201 137 49 0 0 0 0 1
0 2 0 1 0 0 0 0 0 0 0 1 1 0 0 0 0 0 0 0 0 0 0 0 0 0 0 12 60 33 27 171 239 169 258 293 226 211 39 0 0 0 0 0
0 5 0 4 0 0 2 1 0 0 0 0 1 0 2 0 0 0 0 0 0 0 0 0 0 0 0 42 12 9 36 168 185 219 258 258 119 62 8 2 0 9 0 0
1 0 0 0 0 0 0 0 0 3 1 1 0 0 0 0 0 0 0 0 0 0 0 0 0 0 0 12 2 1 118 161 243 212 202 121 13 12 14 30 47 2 0 0
0 0 0 0 0 0 0 0 0 0 0 0 0 0 0 1 2 4 4 0 0 0 0 0 0 0 0 0 2 26 254 120 144 143 101 26 12 2 0 0 0 0 0 0
0 12 6 0 0 8 2 9 0 3 1 0 0 1 1 0 5 2 1 1 0 0 0 0 0 0 0 0 4 168 230 131 136 80 23 2 0 0 0 0 0 0 0 0

GFSCGP_con_mlcape_075.txt.gz
CAPE
0 0 0 0 0 0 0 0 0 0 0 0 0 0 0 0 0 0 0 0 0 0 0 0 0 0 0 0 0 0 0 5 108 358 383 452 400 464 476 454 477 559 759 727
0 0 0 0 0 0 0 0 0 0 0 0 0 0 0 0 0 0 0 0 0 0 0 0 0 0 0 0 0 0 0 0 44 372 501 509 548 527 668 778 815 877 763 758
0 0 0 0 0 0 0 0 0 0 0 0 0 0 0 0 0 0 0 0 0 0 0 0 0 0 0 0 0 0 0 0 6 163 605 463 528 515 652 680 543 493 1001 1137
0 0 0 0 0 0 0 0 0 0 0 0 0 0 0 0 0 0 0 0 0 0 0 0 0 0 0 0 0 0 0 0 48 269 598 654 554 554 579 623 426 525 350 529
0 0 0 0 0 0 0 0 0 0 0 0 0 0 0 0 0 0 0 0 0 0 0 0 0 0 0 0 0 0 0 0 0 424 488 660 493 542 423 450 276 247 449 712
0 0 0 0 0 0 0 0 0 0 0 0 0 0 0 0 0 0 0 0 0 0 0 0 0 0 0 0 0 0 0 0 0 137 457 676 544 493 387 179 89 83 369 773
0 0 0 0 0 0 0 0 0 0 0 0 0 0 0 0 0 0 0 0 0 0 0 0 0 0 0 0 0 0 0 0 0 0 153 346 465 476 296 56 19 83 365 738
0 0 0 0 0 0 0 0 0 0 0 0 0 0 0 0 0 0 0 0 0 0 0 0 0 0 0 0 0 0 0 0 0 0 81 181 365 271 33 24 23 109 248 586
0 0 0 0 0 0 0 0 0 0 0 0 0 0 0 0 0 0 0 0 0 0 0 0 0 0 0 0 0 0 0 0 0 0 102 123 288 59 4 5 105 212 435 801
0 0 0 0 0 0 0 0 0 0 0 0 0 0 0 0 0 0 0 0 0 0 0 0 0 0 0 0 0 0 0 0 0 0 44 80 192 109 16 55 122 342 672 1077
0 0 0 0 0 0 0 0 0 0 0 0 0 0 0 0 0 0 0 0 0 0 0 0 0 0 0 0 0 0 0 0 0 0 0 69 179 147 125 104 265 530 787 1236
0 0 0 0 0 0 0 0 0 0 0 0 0 0 0 0 0 0 0 0 0 0 0 0 0 0 0 0 0 0 22 15 0 0 0 31 190 213 191 285 476 743 1061 1330
0 0 0 0 0 0 0 0 0 0 0 2 0 0 0 0 0 0 0 0 0 0 0 0 0 0 0 21 0 31 615 410 41 0 1 81 186 285 344 513 748 1086 1226 1341
0 0 0 0 0 0 0 0 0 0 0 0 0 0 0 0 0 0 0 0 0 0 0 3 0 0 0 0 100 23 474 838 547 525 311 217 310 447 733 1010 1110 1199 1172 1347
0 0 0 0 0 0 0 0 0 0 0 0 0 0 0 0 0 0 0 0 0 6 0 26 19 0 0 0 38 51 680 1094 881 971 802 812 1136 1222 1251 1258 1143 1131 1210 1130
0 0 0 0 0 0 0 0 0 0 0 0 0 0 0 0 0 0 0 0 0 0 0 36 0 0 0 0 16 154 469 1356 1540 1416 1275 1430 1362 1249 1249 1308 1371 1328 1109 997
0 2 1 0 0 0 0 0 0 0 0 0 0 0 0 0 0 0 0 0 0 5 0 0 7 1 2 0 224 76 326 555 1211 1428 1306 1237 1271 1279 1234 1226 1186 1050 897 744
0 0 0 0 0 0 0 0 0 0 0 0 0 0 0 0 0 0 0 0 3 0 0 0 0 0 0 0 106 156 78 320 362 889 1085 1051 1036 889 835 975 731 639 453 193
0 0 0 0 0 0 0 0 0 0 0 0 0 0 0 0 0 0 0 0 0 0 0 0 0 0 0 0 0 160 4 22 41 166 840 804 612 684 555 304 163 107 109 51
0 0 0 0 2 0 0 0 0 0 0 0 0 0 0 0 0 0 0 0 0 0 0 0 0 0 0 0 0 144 61 0 0 303 723 459 369 394 234 81 47 0 0 1
0 1 0 0 0 0 0 0 0 0 0 0 0 0 0 0 0 0 0 0 0 0 0 0 0 0 0 0 0 107 0 0 0 0 42 263 198 170 78 8 0 0 0 0
2 1 0 0 0 0 0 0 2 0 0 0 0 0 0 0 0 0 0 0 0 0 0 0 0 0 0 0 0 74 6 4 0 0 149 173 161 73 26 0 0 0 0 0
0 0 3 3 0 0 0 0 0 0 0 0 0 0 0 0 0 0 0 0 0 0 0 0 0 0 0 0 0 26 0 0 0 2 134 112 90 38 2 0 0 0 0 0
0 0 0 0 0 0 0 0 4 0 8 0 0 0 0 0 0 1 0 0 1 1 0 0 0 0 0 0 0 3 6 0 25 149 122 140 115 29 0 0 0 0 0 0
0 0 0 0 0 0 0 0 0 0 0 0 0 0 0 1 4 5 2 2 0 0 0 0 0 0 0 0 0 42 110 107 125 171 216 156 54 11 0 0 0 0 0 0
0 0 5 0 0 0 0 0 0 0 0 0 0 2 0 4 4 4 3 4 8 1 0 0 0 0 0 0 0 0 0 190 142 190 136 27 8 0 0 0 0 0 0 0

GFSCGP_con_mlcape_078.txt.gz
CAPE
0 0 0 0 0 0 0 0 0 0 0 0 0 0 0 0 0 0 0 0 0 0 0 0 0 0 0 0 0 0 0 0 0 39 172 181 233 283 135 53 43 75 92 112
0 0 0 0 0 0 0 0 0 0 0 0 0 0 0 0 0 0 0 0 0 0 0 0 0 0 0 0 0 0 0 0 0 0 64 221 200 246 349 256 227 302 293 286
0 0 0 0 0 0 0 0 0 0 0 0 0 0 0 0 0 0 0 0 0 0 0 0 0 0 0 0 0 0 0 0 0 0 9 196 299 272 361 473 508 559 526 510
0 0 0 0 0 0 0 0 0 0 0 0 0 0 0 0 0 0 0 0 0 0 0 0 0 0 0 0 0 0 0 0 0 0 0 48 179 203 323 603 665 728 795 899
0 0 0 0 0 0 0 0 0 0 0 0 0 0 0 0 0 0 0 0 0 0 0 0 0 0 0 0 0 0 0 0 0 0 0 62 205 297 391 438 646 705 724 717
0 0 0 0 0 0 0 0 0 0 0 0 0 0 0 0 0 0 0 0 0 0 0 0 0 0 0 0 0 0 0 0 0 0 0 0 108 213 397 423 591 696 623 603
0 0 0 0 0 0 0 0 0 0 0 0 0 0 0 0 0 0 0 0 0 0 0 0 0 0 0 0 0 0 0 0 0 0 0 0 33 363 307 486 596 654 429 328
0 0 0 0 0 0 0 0 0 0 0 0 0 0 0 0 0 0 0 0 0 0 0 0 0 0 0 0 0 0 0 0 0 0 0 0 0 229 327 479 551 506 306 134
0 0 0 0 0 0 0 0 0 0 0 0 0 0 0 0 0 0 0 0 0 0 0 0 0 0 0 0 0 0 0 0 0 0 0 0 0 6 226 392 581 570 273 252
0 0 0 0 0 0 0 0 0 0 0 0 0 0 0 0 0 0 0 0 0 0 0 0 0 0 0 0 0 0 0 0 0 0 0 0 0 0 97 292 495 511 239 413
0 0 0 0 0 0 0 0 0 0 0 0 0 0 0 0 0 0 0 0 0 0 0 0 0 0 0 0 0 0 0 0 0 0 0 0 0 0 87 244 490 304 267 522
0 0 0 0 0 0 0 0 0 0 0 0 0 0 0 0 0 0 0 0 0 0 0 0 0 0 0 0 0 0 0 1 0 98 0 0 0 1 151 289 348 275 317 753
0 0 0 0 0 0 0 0 0 0 0 0 0 0 0 0 0 0 0 0 0 0 0 0 0 0 0 0 0 0 0 0 1 186 0 0 0 11 178 334 366 347 506 702
5 0 0 0 0 0 0 0 0 0 0 0 0 0 0 0 0 0 0 0 0 0 0 0 0 0 0 0 0 0 0 0 2 394 16 0 0 35 218 363 391 463 651 721
2 1 0 0 0 0 0 0 0 0 0 0 0 0 0 0 0 0 0 0 0 0 0 0 0 4 0 0 0 0 0 0 2 683 362 5 32 206 409 582 622 682 800 957
0 0 0 0 0 0 0 0 0 0 0 0 0 0 0 0 0 0 0 0 0 0 0 0 0 0 0 0 0 0 0 3 14 1262 1000 788 626 565 656 785 845 943 1071 1152
2 3 2 0 0 0 0 0 0 0 0 0 0 0 0 0 0 0 0 0 0 0 0 0 0 0 0 0 0 0 1 7 88 1264 1198 1030 1022 946 990 1050 1083 1121 1122 1022
0 0 6 0 0 0 0 0 0 0 0 0 0 0 0 0 0 0 0 0 0 0 0 0 0 0 0 0 0 0 0 33 81 901 1234 1351 1355 1258 1191 1182 1156 1028 937 985
0 0 0 1 0 0 0 0 0 0 0 0 0 0 0 0 0 0 0 0 0 0 0 0 0 0 0 0 0 0 1 125 25 223 1244 1327 1295 1180 1108 1125 821 747 761 776
0 0 0 0 0 0 0 0 0 0 0 0 0 0 0 0 0 0 0 0 0 0 0 0 0 0 0 0 0 0 0 67 0 261 891 714 817 831 806 556 538 596 616 424
0 2 0 1 3 0 0 0 0 0 0 0 0 0 0 0 0 0 0 0 0 0 0 0 0 0 0 0 0 0 0 42 0 0 21 553 431 313 237 192 325 271 75 25
0 0 0 0 1 0 0 0 0 0 0 0 0 0 2 0 0 0 0 0 0 0 0 0 0 0 0 0 0 0 4 3 0 0 5 348 144 134 64 84 44 44 12 2
0 7 5 0 0 0 0 0 0 0 0 0 20 2 0 0 0 0 1 0 0 3 0 0 0 0 0 0 0 0 0 7 3 0 0 181 86 89 23 12 10 7 0 0
0 0 1 0 0 0 0 0 0 0 0 0 0 0 0 0 0 0 0 0 0 0 0 1 0 0 0 0 0 0 0 9 2 0 60 65 45 42 12 11 7 0 0 0
0 0 0 0 0 0 0 0 0 0 0 0 0 0 0 0 0 3 7 1 0 0 2 5 0 0 0 0 0 0 0 0 0 0 11 8 22 11 0 0 0 0 0 0
0 0 1 2 0 1 1 0 3 8 0 0 0 0 0 2 3 6 1 2 2 2 0 1 1 0 0 0 0 0 0 0 0 0 6 6 9 0 0 0 0 0 0 0

GFSCGP_con_mlcape_084.txt.gz
CAPE
0 0 0 0 0 0 0 0 0 0 0 0 0 0 0 0 0 0 0 0 0 0 0 0 0 0 0 0 0 0 0 0 0 0 0 34 467 718 818 831 661 539 452 400
0 0 0 0 0 0 0 0 0 0 0 0 0 0 0 0 0 0 0 0 0 0 0 0 0 0 0 0 0 0 0 0 0 0 0 0 2 183 564 845 1122 1117 776 588
0 0 0 0 0 0 0 0 0 0 0 0 0 0 0 0 0 0 0 0 0 0 0 0 0 0 0 0 0 0 0 0 0 0 0 0 0 106 309 758 1020 1467 1247 891
0 0 0 0 0 0 0 0 0 0 0 0 0 0 0 0 0 0 0 0 0 0 0 0 0 0 0 0 0 0 0 0 0 0 0 0 0 0 6 252 583 1062 1537 1339
0 0 0 0 0 0 0 0 0 0 0 0 0 0 0 0 0 0 0 0 0 0 0 0 0 0 0 0 0 0 0 0 0 0 0 0 0 0 0 0 305 1098 1554 1741
0 0 0 0 0 0 0 0 0 0 0 0 0 0 0 0 0 0 0 0 0 0 0 0 0 0 0 0 0 0 0 0 0 0 0 0 0 0 0 0 38 374 1054 1617
0 0 0 0 0 0 0 0 0 0 0 0 0 0 0 0 0 0 0 0 0 0 0 0 0 0 0 0 0 0 0 0 0 0 0 0 0 0 0 0 0 75 411 1056
3 18 0 0 0 3 7 4 0 0 0 0 0 0 0 0 0 0 0 0 0 0 0 0 0 0 0 0 0 0 0 0 0 0 0 0 0 0 0 0 0 63 380 864
10 9 0 0 0 0 4 0 2 0 0 0 0 0 0 0 0 0 0 0 0 0 0 0 0 0 0 0 0 0 0 0 0 0 0 0 0 0 0 0 0 45 466 471
6 5 15 11 0 0 0 7 0 0 0 0 0 0 0 0 0 0 0 0 0 0 0 0 0 0 0 0 0 0 0 0 0 0 0 0 0 0 0 0 0 55 390 819
18 36 13 5 13 13 18 1 0 0 5 3 0 0 0 0 0 0 0 0 0 0 0 0 0 0 0 0 0 0 0 0 0 0 0 0 0 0 0 0 49 51 579 824
21 28 22 20 13 0 0 13 41 17 2 0 0 0 0 0 0 0 0 0 0 0 0 0 0 0 0 0 0 0 0 0 0 0 0 0 0 0 0 0 162 236 396 826
21 19 27 26 1 2 0 4 10 30 33 17 34 8 0 0 0 0 0 0 0 0 0 0 0 0 0 0 0 0 0 0 0 0 0 0 0 0 0 0 248 404 383 730
20 30 28 20 19 2 8 25 20 23 22 27 0 5 14 0 0 0 0 0 0 0 0 0 0 0 0 0 0 0 0 0 0 2 2 0 0 1 0 3 396 517 483 732
28 27 20 16 22 23 32 28 24 25 25 10 1 3 3 0 0 9 1 0 0 0 0 0 0 0 0 0 0 0 0 0 1 5 3 1 1 0 1 3 665 672 609 1039
19 11 24 14 18 20 20 20 8 7 13 11 2 0 0 0 3 18 16 16 4 0 0 0 0 2 8 10 3 0 0 0 0 0 1 3 1 0 2 40 1097 663 786 1528
12 19 15 12 21 18 7 0 1 0 0 0 0 0 41 24 12 24 31 26 6 0 4 14 7 4 9 14 11 2 0 0 0 0 0 0 0 0 0 361 1162 698 1354 2309
12 16 20 8 14 2 0 0 2 17 49 39 37 45 36 31 16 34 8 18 17 28 15 15 20 19 12 10 8 3 3 0 2 1 0 0 0 0 0 938 768 1124 2060 2638
4 16 10 12 13 0 0 0 11 59 44 12 50 41 41 28 28 18 2 21 8 18 12 15 12 3 3 7 12 10 9 5 0 0 0 0 0 1 11 1013 915 1699 2415 2631
3 5 2 10 2 4 17 3 7 21 0 68 9 18 15 2 15 0 3 11 11 9 6 7 5 0 0 3 7 11 16 2 0 0 0 0 3 4 653 1061 1784 2171 2314 2430
0 0 0 1 4 9 16 28 4 11 19 13 13 6 10 12 25 15 6 16 3 2 0 0 1 2 4 7 10 15 17 5 0 0 0 0 1 415 1006 1255 1520 1576 1750 1752
12 6 13 2 3 10 12 17 12 16 9 22 15 17 20 10 16 23 17 2 0 0 1 2 5 6 9 6 7 12 8 3 13 3 6 1 592 1150 1200 1210 1408 1422 1418 1443
13 15 10 10 5 12 20 15 14 13 3 0 6 5 15 18 16 20 8 0 0 3 0 0 9 5 3 12 1 7 15 5 1 4 15 52 457 851 1068 1083 1063 1040 1138 1087
9 13 13 9 4 5 0 0 13 17 21 23 11 18 20 19 15 5 1 0 2 1 8 2 5 5 9 2 6 15 14 5 2 0 22 121 369 543 684 711 732 849 945 666
7 3 1 0 3 0 0 0 9 12 19 12 9 8 7 3 7 12 5 5 5 13 8 4 4 6 4 0 12 15 8 3 2 0 19 230 250 348 421 373 688 788 447 280
1 0 0 1 0 3 1 5 15 13 8 7 16 15 12 12 12 11 5 8 11 8 3 0 2 4 3 1 3 19 5 4 1 1 54 71 49 101 201 195 1 0 0 4

GFSCGP_con_mlcape_087.txt.gz
CAPE
0 0 0 0 0 0 0 0 0 0 0 0 0 0 0 0 0 0 0 0 0 0 0 0 0 0 0 0 0 0 0 0 0 0 0 19 419 1039 1000 881 1036 942 761 787
0 0 0 0 0 0 0 0 0 0 0 0 0 0 0 0 0 0 0 0 0 0 0 0 0 0 0 0 0 0 0 0 0 0 0 0 0 1 216 1037 1247 1303 1135 945
0 0 0 0 0 0 0 0 0 0 0 0 0 0 0 0 0 0 0 0 0 0 0 0 0 0 0 0 0 0 0 0 0 0 0 0 0 0 0 0 585 1148 1668 1511
0 0 0 0 0 0 0 0 0 0 0 0 0 0 0 0 0 0 0 0 0 0 0 0 0 0 0 0 0 0 0 0 0 0 0 0 2 0 0 35 101 634 1664 2072
0 0 0 0 0 0 0 0 0 0 0 0 0 0 0 0 0 0 0 0 0 0 0 0 0 0 0 0 0 0 0 0 0 0 0 0 0 0 0 0 0 44 778 2288
0 0 0 0 0 0 0 0 0 0 0 0 0 0 0 0 0 0 0 0 0 0 0 0 0 0 0 0 0 0 0 0 0 0 0 0 0 0 0 0 0 1 140 774
0 0 0 0 0 1 0 0 0 9 4 0 1 0 0 0 0 0 0 0 0 0 0 0 0 0 0 0 0 0 0 0 0 0 0 0 0 0 0 0 0 0 0 46
1 13 5 0 1 8 10 21 14 29 4 2 0 0 0 0 0 0 0 0 0 0 0 0 0 0 0 0 0 0 0 0 0 0 0 0 0 0 0 0 0 0 0 1
11 13 14 0 20 14 29 31 19 8 1 1 0 4 0 0 0 0 0 0 0 0 0 0 0 0 0 0 0 0 0 0 0 0 0 0 0 0 0 0 34 0 0 32
0 9 13 8 0 0 3 16 14 35 10 4 0 0 0 0 0 0 0 0 0 0 0 0 0 0 0 0 0 0 0 0 0 0 0 0 0 0 0 0 0 120 135 161
5 19 4 45 23 39 30 16 36 23 16 3 9 0 0 0 0 0 3 2 2 0 1 0 0 0 0 0 0 0 0 0 0 0 0 0 0 0 0 0 0 2 120 402
22 19 9 25 27 6 37 53 43 32 16 17 9 0 0 0 3 0 0 16 25 16 3 1 2 0 0 0 0 0 0 0 0 0 0 0 0 0 0 0 0 0 74 419
17 17 35 19 16 17 22 26 26 10 22 9 21 1 32 23 7 3 35 45 33 33 22 17 7 2 0 0 0 0 0 0 0 0 0 0 0 0 0 0 2 0 0 209
2 26 27 20 7 0 0 9 31 23 20 31 26 6 2 0 1 40 50 51 56 37 35 22 9 3 0 0 0 0 0 0 0 0 0 0 0 0 2 3 12 5 0 120
22 22 32 33 41 25 29 20 28 48 42 20 24 3 3 15 5 33 39 30 53 21 44 23 7 7 7 4 2 3 6 7 4 1 0 0 0 0 2 10 18 12 3 37
16 14 22 23 21 13 14 14 23 35 24 36 38 25 20 14 34 28 23 63 41 49 47 25 10 9 12 7 12 9 6 8 13 13 1 0 0 0 8 16 24 17 5 44
21 16 5 11 25 26 14 5 17 17 25 25 16 15 7 9 25 77 39 54 71 42 36 30 17 0 0 0 13 18 26 27 16 10 12 1 0 3 17 18 18 17 6 176
12 10 28 17 5 1 19 25 21 36 35 49 34 19 50 55 110 56 46 11 12 31 21 2 0 0 5 8 10 7 3 10 16 20 24 7 13 11 24 29 3 19 9 646
6 13 13 16 12 1 0 10 1 25 35 43 0 28 32 14 5 5 0 6 9 6 5 1 13 3 2 3 1 0 4 2 10 9 3 18 17 9 0 0 3 2 13 896
21 34 6 14 5 12 50 10 53 40 1 90 63 24 3 4 0 7 34 2 0 0 1 14 3 0 0 1 0 1 4 18 9 16 20 3 6 1 1 0 0 0 104 996
0 0 0 3 8 11 59 36 32 16 23 28 20 19 18 11 24 19 12 12 12 21 39 9 1 2 3 0 6 4 17 14 16 10 20 17 4 1 7 0 1 5 704 1155
20 24 3 5 7 7 1 6 25 25 14 29 16 16 18 18 14 21 19 6 2 35 17 4 4 4 1 5 4 16 9 17 27 13 27 26 2 1 11 8 3 76 981 1556
22 16 16 18 25 30 13 15 25 16 15 6 19 6 9 7 13 18 5 4 11 12 8 11 5 3 5 3 10 5 7 4 8 34 33 0 0 1 0 0 0 885 1267 1476
11 7 7 0 18 3 0 10 2 4 20 20 32 7 6 10 11 15 12 19 17 8 0 2 3 4 3 2 5 25 0 5 28 46 14 0 0 0 0 517 899 1179 1378 1472
0 4 4 0 0 0 3 0 4 11 11 10 16 10 18 30 26 18 7 6 5 4 5 4 4 5 4 1 2 1 0 0 8 33 16 162 245 347 554 497 925 1236 1127 1378
5 0 0 2 0 1 0 0 6 16 9 2 7 18 12 19 10 12 5 10 6 6 4 5 3 1 1 1 3 2 1 1 27 1 0 154 263 346 411 319 159 9 232 419